Vertical_Velocity
1 0 3 -1 -3 -1 -2 -1 -5 -3 -1 -7 -3 -3 -3 -5 -1 -2 -2 -4 -5 -4 -3 -3 -3 -2 -1
1 -0 0 -0 4 1 -3 -1 0 -3 -6 -2 -4 -2 -2 -2 -5 -5 -6 -6 -4 -3 -3 -2 -1 -3 -2
-2 1 1 -2 -3 -1 -0 -5 -6 -0 -1 -2 -4 -2 -2 -2 -5 -7 -5 -6 -8 -5 -3 -5 -4 0 -3
1 -3 -5 -1 1 6 0 -3 -7 -8 5 -11 5 -2 -3 -4 -5 -5 -5 -5 -5 -6 -8 -5 -6 -2 7
0 -6 -2 -3 -0 -2 0 10 -6 -11 12 -18 4 -4 -2 -5 -11 -10 -9 -10 -8 -6 -0 -0 -1 -0 3
-3 1 -3 -2 -1 -3 -4 -4 3 -13 3 6 -4 -1 2 1 -1 -4 -4 -4 -4 -2 1 -1 -1 3 -1
2 1 -2 -1 -3 0 -0 -1 -8 -10 -1 14 -1 4 3 -2 -5 -9 -10 -7 0 -1 -2 3 -0 2 3
-4 -2 -1 -2 1 -2 0 1 0 -13 -7 1 -8 4 8 -4 -8 -5 -8 -7 -7 -8 -6 -3 -3 -6 -1
-2 -2 -2 -4 1 -0 -6 -8 4 -7 -1 1 -11 7 16 1 -4 -2 -1 -5 -11 -8 -5 -4 0 1 -1
-0 1 -2 -0 -2 -3 -1 -6 -7 8 -14 17 2 -18 14 19 3 0 4 -3 -2 -4 -6 -3 -4 -1 3
-2 0 -1 -2 -3 -4 -4 -9 -7 -5 -23 -17 -0 1 -3 -18 5 -11 -8 -7 -1 0 -4 -7 -3 -4 4
1 1 -4 0 -2 -8 -7 -8 -14 -11 -6 -9 -5 -6 -11 -5 -5 4 -5 -8 -8 -3 -4 -3 -6 -2 -4
3 0 -0 -1 -0 -4 -8 0 -8 -11 -16 -13 -11 -1 -13 -12 -12 -3 -6 12 -2 -4 -4 -6 2 0 1
-3 1 -5 -1 -2 -2 2 4 5 7 -12 -13 -8 -7 -2 -14 -11 1 -2 -19 5 -3 1 -5 -3 -4 -1
-1 1 -0 -4 -6 -3 -7 -6 -12 -6 4 4 1 2 1 -15 -2 -12 -5 -0 -5 -4 0 7 -8 0 -0
-1 -1 -2 -2 -3 -7 -6 -6 -4 -3 -2 -4 -2 7 11 20 -36 -3 -2 -5 2 3 -1 -4 1 -6 -5
-3 -2 -4 -4 -3 -5 -4 -4 -1 -3 -8 -7 -3 -4 -0 8 18 -28 2 -5 -2 3 2 2 -0 -2 -1
Height
5741 5738 5735 5732 5729 5725 5720 5716 5709 5704 5698 5694 5687 5682 5676 5668 5662 5655 5650 5644 5637 5630 5622 5614 5606 5597 5587
5728 5726 5724 5722 5716 5711 5704 5699 5694 5690 5685 5678 5672 5665 5658 5651 5643 5637 5630 5624 5617 5608 5599 5590 5581 5572 5562
5717 5716 5713 5709 5703 5697 5691 5685 5679 5675 5669 5663 5656 5649 5641 5633 5625 5618 5610 5603 5595 5585 5574 5565 5555 5543 5533
5706 5702 5700 5695 5690 5686 5679 5671 5664 5659 5654 5646 5640 5631 5623 5613 5604 5596 5588 5579 5569 5559 5548 5538 5527 5515 5499
5693 5690 5686 5682 5675 5670 5667 5660 5652 5648 5643 5631 5626 5616 5607 5594 5583 5573 5564 5555 5545 5533 5519 5505 5491 5479 5467
5683 5678 5674 5670 5663 5658 5652 5647 5642 5636 5633 5621 5613 5601 5590 5576 5562 5550 5539 5526 5514 5501 5486 5470 5458 5446 5436
5671 5667 5663 5657 5651 5646 5640 5635 5627 5621 5617 5606 5594 5583 5567 5550 5533 5517 5506 5494 5479 5466 5452 5436 5423 5414 5406
5662 5657 5651 5646 5640 5635 5629 5623 5613 5603 5598 5588 5575 5564 5547 5528 5507 5487 5471 5458 5445 5433 5421 5408 5396 5389 5383
5649 5644 5638 5634 5629 5622 5614 5607 5599 5586 5581 5568 5554 5549 5531 5509 5486 5463 5444 5427 5415 5403 5392 5383 5374 5369 5367
5638 5634 5628 5622 5615 5608 5599 5590 5581 5570 5559 5553 5532 5515 5517 5494 5470 5445 5430 5411 5396 5384 5375 5367 5362 5360 5358
5628 5623 5616 5609 5600 5592 5583 5572 5561 5549 5535 5527 5512 5492 5475 5466 5459 5436 5417 5400 5389 5378 5368 5360 5357 5354 5353
5617 5611 5603 5596 5587 5579 5567 5553 5541 5531 5517 5501 5487 5469 5455 5447 5434 5426 5407 5390 5381 5374 5366 5359 5354 5351 5347
5607 5599 5592 5584 5576 5565 5553 5540 5520 5504 5491 5479 5466 5454 5437 5428 5422 5412 5401 5391 5378 5372 5363 5356 5352 5348 5344
5595 5587 5581 5572 5563 5552 5540 5527 5511 5491 5472 5462 5452 5438 5428 5415 5408 5405 5392 5383 5376 5367 5361 5353 5348 5344 5340
5583 5577 5568 5557 5547 5536 5522 5507 5494 5483 5472 5457 5441 5428 5414 5404 5402 5394 5389 5380 5371 5364 5358 5352 5342 5339 5335
5573 5564 5555 5544 5532 5519 5506 5493 5481 5468 5458 5448 5437 5427 5414 5398 5386 5390 5383 5375 5368 5360 5352 5347 5340 5333 5329
5561 5552 5541 5531 5518 5505 5493 5482 5470 5457 5444 5433 5424 5416 5411 5403 5389 5376 5376 5368 5361 5354 5348 5342 5335 5328 5323